Regional Weather Roundup
Issued by NWS

Home | Current Version | Previous Version | Text Only | Print | Product List | Glossary Off
Versions: 1 2 3 4 5 6 7 8 9 10 11 12 13 14 15 16 17 18 19 20 21 22 23 24 25 26 27 28 29 30 31 32 33 34 35 36 37 38 39 40 41 42 43 44 45 46 47 48 49 50

745
ASUS44 KLIX 240601
RWRLA
LOUISIANA WEATHER ROUNDUP
NATIONAL WEATHER SERVICE NEW ORLEANS LA
100 AM CDT THU APR 24 2014

NOTE: "FAIR" INDICATES FEW OR NO CLOUDS BELOW 12,000 FEET WITH NO
      SIGNIFICANT WEATHER AND/OR OBSTRUCTIONS TO VISIBILITY.
      SKY/WX - SKY CONDITION AND SIGNIFICANT WEATHER.
      TMP - AIR TEMPERATURE.    DP   - DEWPOINT TEMPERATURE.
      RH  - RELATIVE HUMIDITY.  PRES - PRESSURE.
      HX  - HEAT INDEX.         WCI  - WIND CHILL INDEX.

*  THESE STATIONS ARE NOT NWS OR FAA STATIONS AND ARE NOT UNDER
   NWS QUALITY CONTROL.

LAZ040-048-061>063-065-066-069-240700-
SOUTHEAST LOUISIANA

CITY           SKY/WX    TMP DP  RH WIND       PRES   REMARKS
N.O. AUDUBON   NOT AVBL
N.O. INTL ARPT FAIR      67  63  87 SW7       29.92S
6HR MIN TEMP:  67; 6HR MAX TEMP:  80;

N.O. LAKEFRONT FAIR      70  66  87 SW7       29.93R
6HR MIN TEMP:  69; 6HR MAX TEMP:  79;

N.O. DOWNTOWN* FAIR      72  63  73 S5        29.93R
6HR MIN TEMP:  72; 6HR MAX TEMP:  82;

SLIDELL        FAIR      63  59  87 CALM      29.92S
6HR MIN TEMP:  61; 6HR MAX TEMP:  78;

BATON ROUGE    FAIR      68  63  84 SW6       29.93R
6HR MIN TEMP:  68; 6HR MAX TEMP:  82;

BOOTHVILLE     FAIR      69  67  93 S6        29.93F
6HR MIN TEMP:  69; 6HR MAX TEMP:  75;

BELLE CHASSE   FAIR      63  60  90 CALM      29.92S
6HR MIN TEMP:  62; 6HR MAX TEMP:  76;

BOGALUSA*        N/A     61  58  88 CALM      29.94R
6HR MIN TEMP:  60; 6HR MAX TEMP:  79;

GALLIANO*      FAIR      64  61  90 CALM      29.93R
6HR MIN TEMP:  64; 6HR MAX TEMP:  76;

NEW ROADS*     NOT AVBL
GONZALES*      FAIR      64  64  99 CALM      29.92S
6HR MIN TEMP:  63; 6HR MAX TEMP:  77;

HAMMOND*       NOT AVBL
HOUMA*           N/A     65  62  89 CALM      29.93R
6HR MIN TEMP:  62; 6HR MAX TEMP:  76;

PORT FOURCHON* CLEAR     70  66  88 S5        29.94S

$$

LAZ041-044-053-054-240700-
SOUTHWEST LOUISIANA

CITY           SKY/WX    TMP DP  RH WIND       PRES   REMARKS
LAKE CHARLES   FAIR      66  64  93 CALM      29.90F FOG
6HR MIN TEMP:  65; 6HR MAX TEMP:  75;

LAFAYETTE      FAIR      67  65  93 CALM      29.92F
6HR MIN TEMP:  66; 6HR MAX TEMP:  77;

PATTERSON      FAIR      64  63  94 SW3       29.96F
6HR MIN TEMP:  64; 6HR MAX TEMP:  73;

SALT POINT       N/A     71  67  87 VRB3      29.92F
6HR MIN TEMP:  70; 6HR MAX TEMP:  76;

NEW IBERIA     FAIR      65  62  90 SE3       29.92F
6HR MIN TEMP:  65; 6HR MAX TEMP:  76;

CHENAULT AIRPK FOG       62  62  98 S5        29.91F VSB<1/4
6HR MIN TEMP:  62; 6HR MAX TEMP:  77;


$$

LAZ027-028-240700-
CENTRAL LOUISIANA

CITY           SKY/WX    TMP DP  RH WIND       PRES   REMARKS
FORT POLK      FAIR      65  62  90 VRB3      29.90S
6HR MIN TEMP:  64; 6HR MAX TEMP:  79;

ALEXANDRIA INT FAIR      65  61  87 S3        29.89S
6HR MIN TEMP:  63; 6HR MAX TEMP:  78;

ALEXANDRIA     FAIR      59  55  87 CALM      29.91S
6HR MIN TEMP:  59; 6HR MAX TEMP:  81;


$$

LAZ001-002-240700-
NORTHWEST LOUISIANA

CITY           SKY/WX    TMP DP  RH WIND       PRES   REMARKS
SHREVEPORT     MOCLDY    66  57  72 S6        29.85F
6HR MIN TEMP:  66; 6HR MAX TEMP:  79;

BARKSDALE AFB  FAIR      66  53  62 SE8       29.85F
6HR MIN TEMP:  64; 6HR MAX TEMP:  81;

DTN SHREVEPORT FAIR      67  55  65 SE8       29.85F
6HR MIN TEMP:  67; 6HR MAX TEMP:  77;


$$

LAZ014-016-240700-
NORTHEAST LOUISIANA

CITY           SKY/WX    TMP DP  RH WIND       PRES   REMARKS
MONROE         FAIR      57  48  72 CALM      29.90F
6HR MIN TEMP:  56; 6HR MAX TEMP:  77;

TALLULAH       FAIR      58  56  93 CALM      29.91S
6HR MIN TEMP:  58; 6HR MAX TEMP:  78;


$$




USA.gov is the U.S. government's official web portal to all federal, state and local government web resources and services.